Showing default

KINEIS-4D, 63302

Orbit data source: Space-Track

KINEIS-4D, 63302 is a French payload satellite in SSO that was launched on Tue, 18 Mar 2025 UTC via an ELECTRON launch vehicle from the Rocket Lab Launch Complex (RLLC). Payload-class satellites include a variety of spacecraft equipped with specific instruments for various scientific and technological missions. These include communications satellites like Starlink; space stations such as the ISS; scientific satellites like the Hubble; Earth observation satellites from companies like Planet Labs, Umbra, and HawkEye 360; GPS; miniature CubeSats for education and research; and military/defense satellites.

Loading next visibility...
Identifier
63302, 2025-056C
Orbit
SSO
Last TLE update
8 hours ago
Origin
Manufacturer
KINEIS
Mission
Operational Commercial Communications
Bus & Motor
CUBESAT 16U, Unknown motor
Mass
28 kg wet, 28 kg dry
Launch date (UTC)
2025-03-18 (4 months ago)
Launch vehicle
ELECTRON
Launch site
Rocket Lab Launch Complex (RLLC)
Object type
Payload
Rocket body
Debris
Shape & HBR
Box + 2 Pan + 1 Ant, 1.6 m
Radar Cross Section
0.229 m², Medium (>0.1 m² and < 1m²)

Expand to show TLE details & history

TLE from 8 hours ago
0 KINEIS-4D
1 63302U 25056C   25192.16514201  .00001117  00000-0  18446-3 0  9997
2 63302  97.9849 317.5828 0001638  34.4400 325.6914 14.72307469 16953
Epoch: 2025-07-11T03:57Z
TLE epoch observation values (Epoch: 2025-07-11T03:57:48.269Z)
Latitude
0.00003°
Longitude
-31.18931°
Altitude
655.768 km
Speed
7.53 km/s
True Right ascension
21h 10m 19s
True Declination
0° 00' 00"
Sunlit
Object was in full shadow at epoch
Visualization orbit readout
Latitude
-41.30153°
Longitude
142.07805°
Altitude
670.703 km
Speed
7.52 km/s
Apparent Right ascension
10h 11m 35s
Apparent Declination
-42° 49' 03"
Sunlit
Object is in daylight
Visualization observer readout
Local Sidereal Time
23:47:29
Azimuth
107.018° ESE
Elevation
-71.838°
Doppler factor
1
Orbital elements
Apogee altitude
651.918 km
Perigee altitude
649.615 km
Semi-major axis
7,028.903 km
Eccentricity
0.00016
Inclination
97.9849°
RAAN
317.5828°
Arg. of periapsis
34.44°
True anomaly
Unknown
Mean anomaly
325.6914°
Eccentric anomaly
Unknown
Mean motion
3.68309 °/min
Orbital period
97.74 mins
BSTAR
0.00018446
Loading maneuver chart data...
Loading SW <> Apogee altitude chart data...
Loading historical data...
Loading historical data...
Loading historical data...
Loading historical data...
Loading historical data...
Loading historical data...
Loading historical data...

KINEIS-4D Visibility forecast

Observer location: undefined°, undefined°

Span
Click to sort rows by Start time (UTC) header in descending order
Start Az.
Max El. time (UTC)
Max El. Az.
Max El.
End time (UTC)
End Az.
8 mins2025-07-11 20:50:26.936Z25.683° NE2025-07-11 20:54:26.936Z91.512° ESE35.764°2025-07-11 20:58:26.936Z171.142° S
4 mins2025-07-11 22:29:26.936Z319.447° NNW2025-07-11 22:31:26.936Z287.977° WNW15.866°2025-07-11 22:33:26.936Z259.901° W
6 mins2025-07-12 07:50:26.936Z126.971° SE2025-07-12 07:52:26.936Z87.142° E31.138°2025-07-12 07:56:26.936Z7.003° NNE
4 mins2025-07-12 09:28:26.936Z243.34° WSW2025-07-12 09:29:26.936Z259.901° W17.629°2025-07-12 09:32:26.936Z306.181° NW
|